Location: Cambroso
(45.2833°N, 12.0850°E)
Time: 19:27:10
(UTC+00:00)

NOAA 12 - Pass Details

Date: 21 January 2021
Orbit: 796 x 814 km, 98.5° (Epoch: 04 March)

Event Time Altitude Azimuth Distance (km) Brightness Sun altitude
Rises 16:30:00 0° 164° (SSE) 3,287 7.4 -5.0°
Reaches altitude 10° 16:32:18 10° 165° (SSE) 2,361 6.6 -5.4°
Maximum altitude 16:37:32 89° 251° (WSW) 803 4.2 -6.3°
Drops below altitude 10° 16:42:49 10° 346° (NNW) 2,380 6.5 -7.1°
Sets 16:45:09 0° 347° (NNW) 3,316 7.2 -7.5°
